Regional Weather Roundup
Issued by NWS Upton, NY

Home | Current Version | Previous Version | Text Only | Print | Product List | Glossary On
Versions: 1 2 3 4 5 6 7 8 9 10 11 12 13 14 15 16 17 18 19 20 21 22 23 24 25 26 27 28 29 30 31 32 33 34 35 36 37 38 39 40 41 42 43 44 45 46 47
000
ASUS41 KOKX 250505
RWROKX

REGIONAL WEATHER ROUNDUP
NATIONAL WEATHER SERVICE NEW YORK NY
1200 AM EST THU DEC 25 2014

NOTE: "FAIR" INDICATES FEW OR NO CLOUDS BELOW 12,000 FEET WITH NO
SIGNIFICANT WEATHER AND/OR OBSTRUCTIONS TO VISIBILITY.

NYZ071-072-176-178-NJZ106-104-250600-
NEW YORK CITY METRO AREA


CITY           SKY/WX    TMP DP  RH WIND       PRES   REMARKS
CENTRAL PARK   CLOUDY    54  54 100 S5        29.56F FOG
LAGUARDIA APRT FOG       53  52  96 SE8       29.53F VSB 1/4
KENNEDY INTL   FOG       52  50  93 S13       29.56F VSB 1/2
NEWARK/LIBERTY FOG       54  54 100 CALM      29.53F VSB 1/4
BRNX BOT. GARD   N/A     54  54 100 SE1       29.54F
TETERBORO      FOG       52  52 100 CALM      29.52F VSB 1/2
$$

NYZ177-179-078>081-250600-
LONG ISLAND NEW YORK

CITY           SKY/WX    TMP DP  RH WIND       PRES   REMARKS
FARMINGDALE    FOG       52  52 100 SW6       29.58R VSB 3/4
ISLIP          FOG       53  52  96 SW6       29.57S VSB 1/4
SHIRLEY        FOG       54  53  97 S8        29.59F VSB 1/2
WESTHAMPTON    FOG       56  54  93 SW12G22   29.59F VSB 1/2
MONTAUK POINT    N/A     57  56  96 S12G21    29.61F
$$

NYZ052-065-067-250600-
HUDSON VALLEY

CITY           SKY/WX    TMP DP  RH WIND       PRES   REMARKS
WHITE PLAINS   FOG       54  54 100 SE6       29.53F VSB 1/8
NEWBURGH       FOG       48  48 100 CALM      29.50F VSB 1
MONTGOMERY     FOG       47  47 100 N3        29.48F VSB 3/4
POUGHKEEPSIE   CLOUDY    49  46  90 CALM      29.49F FOG
ALBANY         DRZL/FOG  51  49  92 S12       29.46F VSB 3/4
$$

NJZ001-105-106-008-010-013-015-019>022-104-250600-
NEW JERSEY

CITY           SKY/WX    TMP DP  RH WIND       PRES   REMARKS
NEWARK/LIBERTY FOG       54  54 100 CALM      29.53F VSB 1/4
TETERBORO      FOG       52  52 100 CALM      29.52F VSB 1/2
CALDWELL       CLOUDY    50  50 100 NW3       29.53F FOG
MORRISTOWN     FOG       50  48  93 CALM      29.53F VSB 3/4
SOMERVILLE     CLOUDY    52  50  93 CALM      29.52R FOG
SUSSEX         CLOUDY    48  47  96 CALM      29.50F FOG
ANDOVER        NOT AVBL
TRENTON        CLOUDY    63  60  90 SW16      29.53F
MILLVILLE      CLOUDY    59  59 100 SW7       29.58S
ATLANTIC CITY  CLOUDY    57  56  96 S14G24    29.58S VSB 1/2
WRIGHTSTOWN    CLOUDY    64  64 100 SW17      29.54R
TOMS RIVER     CLOUDY    61  59  94 S12G20    29.57R
BELMAR         CLOUDY    61  57  88 SW12G17   29.55F
$$

PAZ047>061-062-071-250600-
EASTERN PENNSYLVANIA

CITY           SKY/WX    TMP DP  RH WIND       PRES   REMARKS
PHILADELPHIA   CLOUDY    63  60  90 S16       29.55S
ALLENTOWN      LGT RAIN  60  57  89 SW14      29.50F
SCRANTON       CLOUDY    59  54  83 SW6G22    29.46S
$$

CTZ002-004>006-009-010-012-RIZ004-006-007-MAZ004-011-015-250600-
SOUTHERN NEW ENGLAND
 IN CT

CITY           SKY/WX    TMP DP  RH WIND       PRES   REMARKS
BRADLEY INTL   DRZL/FOG  43  41  93 CALM      29.56S VSB 1/2
HARTFORD       CLOUDY    44  43  96 VRB3      29.58R FOG
DANBURY        CLOUDY    56  54  93 S7        29.53F FOG
WTRBRY/OXFORD  CLOUDY    57  54  88 S7        29.56S VSB 1/4
BRIDGEPORT     FOG       53  53 100 SW6       29.57S VSB 1/2
MERIDEN        FOG       50  49  96 S6        29.57S VSB 1/4
NEW HAVEN      FOG       55  52  89 S8        29.57F VSB 1/2
CHESTER        FOG       57  57 100 SW12G21   29.60R VSB 1/4
GROTON         FOG       55  55 100 SW14      29.57F VSB 1/4
WILLIMANTIC    CLOUDY    61  59  93 S12       29.56F

 IN RI

CITY           SKY/WX    TMP DP  RH WIND       PRES   REMARKS
PROVIDENCE     CLOUDY    63  61  93 S23G30    29.58F FOG
BLOCK ISLAND   CLOUDY    59  55  88 SW22G28   29.60F
WESTERLY       FOG       58  58 100 SW14G23   29.60F VSB 3/4

 IN MA

CITY           SKY/WX    TMP DP  RH WIND       PRES   REMARKS
BOSTON         DRIZZLE   45  45 100 CALM      29.55F FOG
WORCESTER      FOG       51  51 100 SW9       29.55F VSB 1/4
WESTFIELD      CLOUDY    42  40  92 CALM      29.56F FOG
PROVINCETOWN   CLOUDY    61  55  82 S23G30    29.59F
NANTUCKET      LGT RAIN  57  55  93 S24G31    29.64F VSB 1/2
$$

ANZ330-335-338-340-345-350-353-355-250600-
COASTAL MARINE OBSERVATIONS


STATION/POSITION TIME  SKY/WX   TEMP    WIND        PRES    VSBY  WAVE
                                AIR SEA DIR/SP/G                  HT/PER
                 (UTC)          (F)     (DEG/KT/KT) (MB)    (MI)  (FT/S)
NY HARB ENTRANCE 0500            49 47  220/ 12/ 14 1001.5          5/ 6
4S FIRE IS       0500               47                N/A           6/ 6
20S FIRE ISLAND  0400            55 51              1002.5          5/ 6
23SW MTP         0500                                 N/A           6/ 6
HUDSON CANYON    0500            61 55  200/ 19/ 23 1002.7          8/ 6
EXECUTION ROCKS  0500            49 42  140/  4/  6   N/A
WESTERN LI SOUND 0500            51     130/  2/  6   N/A           1
CENTRAL LI SOUND 0400            49 44  200/ 10/ 12   N/A           2/ 4
EASTERN LI SOUND NOT AVBL
ROBBINS REEF     0500            54                  998.6
$$


>>>>>>>>>>>>>>>>>>>>>>>>>>>> KEY <<<<<<<<<<<<<<<<<<<<<<<<<<<
>                                                          <
>     SKY/WX - SKY CONDITION/PRESENT WEATHER               <
>     TMP    - TEMPERATURE IN FAHRENHEIT                   <
>     DP     - DEWPOINT IN FAHRENHEIT                      <
>     RH     - RELATIVE HUMIDITY IN PERCENT                <
>     WIND   - DIRECTION AND SPEED IN MPH                  <
>     PRES   - MEAN SEA LEVEL PRESSURE IN INCHES OF HG     <
>     WCI    - WIND CHILL INDEX                            <
>     VSB    - VISIBILITY IN MILES                         <
>     HX     - HEAT INDEX                                  <
>     TC     - TEMPERATURE IN CELSIUS                      <
>     VRB    - VARIABLE WIND DIRECTION                     <
>                                                          <
>>>>>>>>>>>>>>>>>>>>>>>>>>>> KEY <<<<<<<<<<<<<<<<<<<<<<<<<<<




USA.gov is the U.S. government's official web portal to all federal, state and local government web resources and services.